[[{"header":{"parameterUnit":"m.s-1","parameterCategory":2,"la1":30.2991,"la2":30.254,"lo1":-89.0895,"lo2":-89.0444,"dy":0.0017,"dx":0.0017,"nx":28,"ny":28,"refTime":"2024-02-25T03:00:00:Z","depth":"0","parameterNumber":2,"parameterNumberName":"U-component_of_CURRENTS"},"data":[0,0,0,0,0,0,0,0,0,0,0,0,0,0,0,0,0,0,0,0,0,0,0,0,0,0,0,0,0,0,0,0,0,0,0,0,0,0,0,0,0,0,0,0,0,0,0,0,0,0,0,0,0,0,0,0,0,0,0.2288,0.2288,0,0.2259,0.2258,0.2258,0.2148,0.2146,0.2144,0.2142,0.2138,0.214,0.2142,0,0,0,0,0,0,0,0,0,0,0,0,0,0.2228,0.223,0.2288,0.2288,0.2288,0.2259,0.2258,0.2257,0.2148,0.2146,0.2143,0.2141,0.2138,0.214,0.2142,0,0,0,0,0,0,0,0,0,0,0,0,0,0.2228,0.223,0.2288,0.2233,0.2229,0.2259,0.2258,0.2257,0.2149,0.2146,0.2142,0.2139,0.2137,0.214,0.2143,0.2223,0,0,0.2151,0.2152,0,0,0,0,0,0,0,0,0.2228,0.223,0.2241,0.2237,0.2232,0.2208,0.2236,0.2249,0.215,0.2174,0.2142,0.2138,0.2169,0.2169,0.2164,0.2223,0.2223,0.2151,0.2153,0.2154,0.2155,0,0,0,0,0,0,0,0.2228,0.223,0.2272,0.2242,0.2236,0.2204,0.22,0.2237,0.2187,0.2172,0.2165,0.217,0.2166,0.2162,0.2163,0.2223,0.2151,0.2154,0.2156,0.2157,0.2359,0.2362,0,0,0,0,0,0,0.2246,0.2231,0.2273,0.2272,0.2227,0.2208,0.2203,0.2215,0.2186,0.2179,0.2173,0.2165,0.2158,0.216,0.2163,0.2258,0.2154,0.2157,0.2159,0.2355,0.2359,0.2363,0,0,0,0,0,0,0.2245,0.2251,0.2274,0.2253,0.2254,0.2213,0.2227,0.2216,0.2214,0.2187,0.2179,0.2181,0.2156,0.2159,0.2215,0.2257,0.2158,0.2161,0.2351,0.2356,0.2361,0.2448,0,0,0,0,0,0,0.2244,0.2251,0.2284,0.2255,0.2257,0.2322,0.223,0.2218,0.2224,0.2213,0.2193,0.2188,0.2154,0.2212,0.2218,0.2259,0.2163,0.2346,0.2353,0.236,0.244,0.2455,0.2469,0,0,0,0,0,0.2242,0.2301,0.2285,0.2291,0.2297,0.2325,0.2324,0.2279,0.2228,0.2258,0.2236,0.2189,0.2259,0.2218,0.2224,0.2266,0.2343,0.2351,0.2359,0.2434,0.2452,0.2468,0,0,0,0,0,0,0.2313,0.2295,0.2277,0.2334,0.2342,0.2309,0.2336,0.2302,0.2306,0.2283,0.2244,0.2242,0.2307,0.2295,0.225,0.235,0.2292,0.2302,0.2347,0.2364,0.2378,0.235,0.2165,0,0,0,0,0,0.2344,0.2368,0.2358,0.2409,0.2415,0.2379,0.2388,0.235,0.2343,0.2337,0.2324,0.2321,0.2351,0.2361,0.2385,0.245,0.2449,0.2483,0.2497,0.2509,0.2496,0.2565,0.2583,0.239,0.239,0.239,0,0,0.2385,0.2383,0.2397,0.2424,0.2417,0.2426,0.2376,0.2391,0.2391,0.2345,0.2363,0.2381,0.2386,0.2445,0.2472,0.2433,0.2569,0.252,0.2529,0.2509,0.2575,0.2593,0.261,0.2396,0.2395,0.2394,0,0,0.2448,0.2479,0.2495,0.2506,0.2504,0.2487,0.2499,0.2478,0.2467,0.2506,0.2469,0.2515,0.2553,0.2558,0.2566,0.2686,0.2651,0.2701,0.2736,0.2806,0.2821,0.2834,0.2869,0.2884,0.2696,0.2697,0.2697,0,0.2496,0.2506,0.2516,0.2528,0.253,0.2516,0.252,0.2532,0.253,0.2535,0.2523,0.2589,0.2602,0.2659,0.2693,0.2714,0.2735,0.2663,0.2821,0.2834,0.2846,0.2878,0.2894,0.2702,0.2701,0.2701,0.27,0,0.2533,0.2553,0.2577,0.2567,0.2591,0.2606,0.2606,0.2629,0.2619,0.2613,0.2682,0.2715,0.274,0.2775,0.2766,0.2862,0.2845,0.2837,0.2766,0.2869,0.2898,0.2913,0.2709,0.2707,0.2706,0.2704,0,0,0.2569,0.2591,0.259,0.2578,0.2598,0.2606,0.2647,0.2666,0.2667,0.2718,0.2739,0.2827,0.2835,0.2848,0.2864,0.2926,0.3045,0.2918,0.2919,0.293,0.3182,0.3189,0.3205,0.3068,0.3071,0.3073,0.3171,0,0.2574,0.2586,0.26,0.2609,0.2606,0.2625,0.2657,0.2679,0.2708,0.2743,0.2803,0.2843,0.2867,0.2883,0.2961,0.3021,0.3087,0.3018,0.3097,0.3098,0.3075,0.3224,0.3159,0.3243,0.3185,0.3187,0.3189,0,0.2559,0.2567,0.2573,0.2584,0.2585,0.26,0.2621,0.2649,0.2717,0.2743,0.2812,0.285,0.2954,0.2957,0.312,0.3076,0.3137,0.3185,0.319,0.3167,0.3134,0.3131,0.3271,0.3168,0.3212,0.321,0.3208,0,0.2505,0.2531,0.2527,0.2534,0.2564,0.2571,0.2588,0.2642,0.266,0.2741,0.2769,0.2888,0.2947,0.3063,0.318,0.3157,0.335,0.3325,0.3385,0.3383,0.3326,0.3316,0.3353,0.3443,0.3443,0.3443,0.3443,0,0.2469,0.2459,0.2499,0.2491,0.2486,0.2523,0.2528,0.2567,0.2627,0.2661,0.2759,0.2818,0.2983,0.3107,0.3201,0.3356,0.3377,0.3417,0.343,0.3358,0.335,0.3252,0.3206,0.3447,0.3446,0.3445,0.3444,0,0.2394,0.2423,0.2413,0.2446,0.2455,0.2445,0.2479,0.2484,0.2556,0.261,0.2639,0.2791,0.296,0.3113,0.3303,0.338,0.3433,0.3552,0.3445,0.3445,0.3392,0.3354,0.3263,0.3179,0.3636,0.3637,0.3638,0,0.2355,0.2343,0.2368,0.2356,0.2367,0.2369,0.2369,0.2435,0.246,0.2593,0.2623,0.2796,0.292,0.3202,0.338,0.3563,0.3448,0.359,0.3544,0.3409,0.3376,0.3195,0.3117,0.3502,0.3502,0.3502,0.3501,0,0.2275,0.2285,0.228,0.2266,0.2258,0.2255,0.2278,0.2288,0.2383,0.2449,0.2562,0.2669,0.2967,0.3149,0.3407,0.3517,0.3422,0.3591,0.3491,0.3322,0.3087,0.3004,0.3387,0.3499,0.35,0.35,0.35,0.35,0.2211,0.2184,0.2179,0.2156,0.2141,0.2126,0.2099,0.2163,0.22,0.2293,0.2454,0.2592,0.293,0.3291,0.3372,0.3478,0.3408,0.3435,0.3415,0.3252,0.3128,0.3499,0.3601,0.3601,0.3602,0.3603,0.3603,0,0.2122,0.2098,0.2069,0.2026,0.1967,0.2009,0.2017,0.1997,0.2023,0.2181,0.2286,0.259,0.2839,0.3093,0.3363,0.3317,0.3164,0.3238,0.2963,0.291,0.3295,0.3246,0.3227,0.3227,0.3227,0.3227,0.3227,0.3227,0.207,0.2006,0.1989,0.1866,0.183,0.1748,0.1735,0.1755,0.1841,0.196,0.2109,0.2293,0.2662,0.3035,0.3139,0.3116,0.2872,0.2774,0.2717,0.2995,0.3009,0.3022,0.2964,0.2886,0.2886,0.2211,0.2206,0.2203]},{"header":{"parameterUnit":"m.s-1","parameterCategory":2,"la1":30.2991,"la2":30.254,"lo1":-89.0895,"lo2":-89.0444,"dy":0.0017,"dx":0.0017,"nx":28,"ny":28,"refTime":"2024-02-25T03:00:00:Z","depth":"0","parameterNumber":3,"parameterNumberName":"V-component_of_CURRENTS"},"data":[0,0,0,0,0,0,0,0,0,0,0,0,0,0,0,0,0,0,0,0,0,0,0,0,0,0,0,0,0,0,0,0,0,0,0,0,0,0,0,0,0,0,0,0,0,0,0,0,0,0,0,0,0,0,0,0,0,0,0.0774,0.0774,0,0.0737,0.0736,0.0736,0.0644,0.0643,0.0641,0.0639,0.0512,0.051,0.0508,0,0,0,0,0,0,0,0,0,0,0,0,0,0.0705,0.0707,0.0774,0.0774,0.0774,0.0737,0.0736,0.0735,0.0645,0.0643,0.0641,0.0639,0.0512,0.051,0.0508,0,0,0,0,0,0,0,0,0,0,0,0,0,0.0706,0.0708,0.0774,0.0726,0.0722,0.0737,0.0736,0.0735,0.0645,0.0643,0.064,0.0638,0.0513,0.051,0.0507,0.054,0,0,0.0499,0.0498,0,0,0,0,0,0,0,0,0.0706,0.0708,0.0734,0.073,0.0725,0.0695,0.0665,0.0666,0.0646,0.0671,0.0639,0.0637,0.0568,0.0561,0.0556,0.0534,0.0528,0.0499,0.0497,0.0496,0.0495,0,0,0,0,0,0,0,0.0706,0.0709,0.0756,0.0734,0.0728,0.0686,0.0683,0.0665,0.063,0.0669,0.0663,0.0664,0.0565,0.056,0.0553,0.0526,0.0499,0.0496,0.0495,0.0493,0.051,0.0512,0,0,0,0,0,0,0.0723,0.071,0.0758,0.0756,0.0712,0.0689,0.0686,0.0705,0.0632,0.062,0.0666,0.066,0.0566,0.0556,0.0548,0.0585,0.0496,0.0493,0.0492,0.0508,0.051,0.0512,0,0,0,0,0,0,0.0722,0.0729,0.0759,0.0732,0.0734,0.0694,0.0715,0.0706,0.0692,0.0632,0.0617,0.0662,0.0563,0.0552,0.0559,0.0579,0.0492,0.0489,0.0505,0.0508,0.0511,0.0657,0,0,0,0,0,0,0.0721,0.0729,0.0757,0.0735,0.0736,0.0784,0.0717,0.0707,0.0699,0.069,0.0624,0.061,0.056,0.0564,0.0557,0.0573,0.0487,0.0502,0.0507,0.051,0.0649,0.0665,0.0678,0,0,0,0,0,0.0719,0.0771,0.0759,0.0765,0.0774,0.0787,0.0784,0.0743,0.0701,0.0717,0.0683,0.0611,0.0582,0.0566,0.0555,0.0571,0.05,0.0505,0.051,0.0643,0.0662,0.0677,0,0,0,0,0,0,0.0766,0.0766,0.0753,0.0806,0.0803,0.0772,0.079,0.0754,0.074,0.0726,0.0654,0.0641,0.0648,0.0602,0.0585,0.0588,0.0523,0.0526,0.0628,0.0644,0.0658,0.0647,0.0485,0,0,0,0,0,0.0792,0.0822,0.0814,0.0857,0.0861,0.0826,0.0826,0.0797,0.0777,0.0766,0.0728,0.0687,0.0664,0.065,0.0624,0.0641,0.058,0.064,0.0654,0.0666,0.0652,0.0615,0.0624,0.0528,0.0528,0.0528,0,0,0.0817,0.0827,0.0842,0.0868,0.086,0.0874,0.0819,0.083,0.0835,0.0757,0.077,0.0739,0.0681,0.0697,0.0693,0.0659,0.0666,0.0672,0.0683,0.0661,0.0621,0.063,0.0638,0.0531,0.0531,0.053,0,0,0.087,0.0901,0.0927,0.0933,0.0935,0.0925,0.093,0.0913,0.0903,0.0923,0.0861,0.0856,0.0827,0.0794,0.0769,0.0849,0.0744,0.0832,0.0891,0.0858,0.0865,0.087,0.0819,0.0819,0.0837,0.0837,0.0838,0,0.0893,0.0932,0.0939,0.0961,0.0971,0.0949,0.0967,0.0971,0.0958,0.0961,0.0943,0.0908,0.0869,0.0862,0.089,0.0877,0.0832,0.0834,0.0875,0.0879,0.0882,0.0828,0.0826,0.0845,0.0844,0.0843,0.0843,0,0.0949,0.0977,0.1002,0.102,0.1042,0.1063,0.1065,0.1088,0.1078,0.1065,0.1074,0.1044,0.1009,0.1008,0.0972,0.0975,0.0928,0.0901,0.0831,0.09,0.0839,0.0834,0.0856,0.0853,0.0851,0.0849,0,0,0.0985,0.1025,0.103,0.1041,0.1069,0.1089,0.1131,0.1153,0.1167,0.1174,0.1184,0.1171,0.1141,0.111,0.1068,0.1047,0.1046,0.099,0.0984,0.0936,0.0955,0.0945,0.0937,0.1026,0.1026,0.1025,0.091,0,0.1011,0.1057,0.1076,0.1121,0.1142,0.1156,0.1196,0.1217,0.1232,0.1252,0.1225,0.1222,0.1182,0.1171,0.1148,0.1074,0.1036,0.1078,0.0896,0.089,0.087,0.0932,0.0943,0.0843,0.0904,0.0903,0.0902,0,0.104,0.107,0.1113,0.1158,0.1171,0.1201,0.1258,0.1289,0.1317,0.1325,0.1322,0.1293,0.1274,0.1228,0.1127,0.1155,0.1058,0.0997,0.099,0.0917,0.0869,0.078,0.0829,0.0642,0.0893,0.0894,0.0894,0,0.1043,0.1093,0.113,0.1145,0.1199,0.1229,0.1264,0.1307,0.1345,0.1366,0.1388,0.135,0.1333,0.1235,0.1124,0.1119,0.0999,0.0972,0.086,0.0856,0.0795,0.0787,0.0635,0.0872,0.0872,0.0872,0.0873,0,0.1057,0.1085,0.1134,0.1153,0.1211,0.1242,0.1306,0.1337,0.1384,0.1434,0.1417,0.1439,0.1334,0.1263,0.1141,0.0998,0.1005,0.0869,0.0833,0.0849,0.0848,0.0623,0.052,0.0868,0.0869,0.087,0.087,0,0.1054,0.1079,0.1128,0.1189,0.1211,0.1257,0.1343,0.1392,0.1428,0.1491,0.1503,0.1501,0.1432,0.1307,0.1146,0.1023,0.0782,0.0811,0.0835,0.0805,0.0548,0.0455,0.029,0.0186,0.068,0.0679,0.0679,0,0.1054,0.1077,0.1154,0.1192,0.1222,0.1293,0.1348,0.1408,0.1468,0.1535,0.157,0.1533,0.1543,0.132,0.1106,0.0894,0.0731,0.0723,0.0721,0.0536,0.0404,0.0383,0.0305,0.0691,0.0691,0.069,0.069,0,0.1067,0.1096,0.1149,0.1221,0.1283,0.1363,0.1444,0.15,0.1577,0.1638,0.1706,0.1723,0.1542,0.1366,0.1078,0.0923,0.061,0.0706,0.0507,0.0395,0.0368,0.025,0.0747,0.0686,0.0686,0.0686,0.0687,0.0687,0.1084,0.1133,0.12,0.1272,0.1344,0.1438,0.1516,0.1611,0.1719,0.1843,0.1833,0.1914,0.163,0.1277,0.0991,0.0527,0.0552,0.0397,0.0294,0.0289,0.0204,0.0692,0.0602,0.0602,0.0602,0.0602,0.0602,0,0.1111,0.1172,0.1244,0.1346,0.143,0.146,0.1588,0.1685,0.1827,0.1957,0.2048,0.2013,0.1605,0.1183,0.0557,0.0185,0.0069,-0.0011,-0.0064,-0.0131,0.0288,0.0303,0.0156,0.0156,0.0156,0.0156,0.0157,0.0157,0.113,0.1212,0.126,0.1402,0.1476,0.1606,0.1689,0.1832,0.1964,0.215,0.2254,0.2326,0.2032,0.0865,0.0006,-0.0208,-0.0483,-0.0494,-0.0661,-0.0409,-0.0379,-0.035,-0.036,-0.0644,-0.0645,-0.1011,-0.1015,-0.1019]}],[{"header":{"parameterUnit":"m.s-1","parameterCategory":2,"la1":30.2991,"la2":30.254,"lo1":-89.0895,"lo2":-89.0444,"dy":0.0017,"dx":0.0017,"nx":28,"ny":28,"refTime":"2024-02-25T03:00:00:Z","depth":"2","parameterNumber":2,"parameterNumberName":"U-component_of_CURRENTS"},"data":[0,0,0,0,0,0,0,0,0,0,0,0,0,0,0,0,0,0,0,0,0,0,0,0,0,0,0,0,0,0,0,0,0,0,0,0,0,0,0,0,0,0,0,0,0,0,0,0,0,0,0,0,0,0,0,0,0,0,0.1505,0.1506,0,0.1531,0.1531,0.1531,0.1539,0.1539,0.1539,0.1539,0.1531,0.1531,0.1531,0,0,0,0,0,0,0,0,0,0,0,0,0,0.1507,0.1506,0.1505,0.1506,0.1506,0.1531,0.1531,0.1531,0.1539,0.1539,0.1539,0.1539,0.1531,0.1531,0.1531,0,0,0,0,0,0,0,0,0,0,0,0,0,0.1514,0.1506,0.1505,0.1515,0.1516,0.1531,0.1531,0.1531,0.1539,0.1539,0.1539,0.1539,0.1531,0.1531,0.1531,0.1525,0,0,0.1529,0.1529,0,0,0,0,0,0,0,0,0.1513,0.1514,0.1513,0.1514,0.1516,0.1534,0.1529,0.1528,0.1539,0.1528,0.1539,0.1539,0.153,0.153,0.1532,0.1525,0.1524,0.1529,0.1529,0.1529,0.1529,0,0,0,0,0,0,0,0.1513,0.1513,0.1513,0.1514,0.1515,0.1533,0.1533,0.1529,0.1525,0.1529,0.153,0.1536,0.1531,0.1532,0.1531,0.1524,0.1529,0.1529,0.1529,0.1528,0.1555,0.1556,0,0,0,0,0,0,0.1512,0.1512,0.1512,0.1514,0.1518,0.1533,0.1533,0.1526,0.1526,0.1527,0.1536,0.1537,0.1533,0.1532,0.1531,0.1566,0.1529,0.1528,0.1528,0.1554,0.1555,0.1556,0,0,0,0,0,0,0.1512,0.1511,0.1511,0.1516,0.1518,0.1532,0.1524,0.1526,0.1537,0.1533,0.1533,0.1546,0.1533,0.1532,0.1543,0.1564,0.1528,0.1528,0.1553,0.1554,0.1556,0.1608,0,0,0,0,0,0,0.1511,0.151,0.1508,0.1516,0.1518,0.153,0.1524,0.1527,0.1541,0.1542,0.1541,0.154,0.1533,0.1543,0.1542,0.1562,0.1527,0.1552,0.1553,0.1555,0.1605,0.1611,0.1616,0,0,0,0,0,0.1511,0.1505,0.1507,0.1508,0.1512,0.1531,0.1534,0.1543,0.1542,0.1552,0.1553,0.1541,0.1554,0.1544,0.1542,0.1563,0.1551,0.1553,0.1555,0.1602,0.161,0.1616,0,0,0,0,0,0,0.1494,0.1506,0.1508,0.1502,0.1522,0.1533,0.1542,0.1549,0.1557,0.1558,0.155,0.155,0.1566,0.1557,0.1546,0.1576,0.1551,0.1553,0.1588,0.1594,0.16,0.1613,0.1527,0,0,0,0,0,0.1492,0.1496,0.151,0.1509,0.1517,0.1531,0.1541,0.155,0.1559,0.1563,0.1562,0.1564,0.1572,0.1578,0.1577,0.1592,0.1612,0.1606,0.1611,0.1616,0.1626,0.1671,0.1682,0.1563,0.1563,0.1563,0,0,0.1487,0.1493,0.1496,0.1508,0.152,0.1542,0.1537,0.1555,0.1577,0.156,0.1581,0.1579,0.1579,0.1599,0.1606,0.1597,0.1665,0.1619,0.1623,0.1631,0.1675,0.1686,0.1697,0.1565,0.1564,0.1564,0,0,0.1487,0.1484,0.1494,0.1514,0.1539,0.1552,0.156,0.1578,0.1588,0.1613,0.1606,0.1622,0.1629,0.1639,0.1644,0.168,0.1689,0.1677,0.1721,0.1764,0.1775,0.1784,0.1846,0.1861,0.1684,0.1684,0.1685,0,0.1481,0.1493,0.1502,0.1523,0.1546,0.1559,0.1586,0.1599,0.1619,0.1637,0.1627,0.166,0.1653,0.1692,0.1704,0.1694,0.1726,0.1695,0.1773,0.1783,0.1791,0.1852,0.1868,0.1687,0.1687,0.1687,0.1686,0,0.1495,0.1513,0.1522,0.1556,0.158,0.1604,0.1631,0.1653,0.1667,0.1686,0.1724,0.1722,0.175,0.1746,0.1736,0.1793,0.18,0.1772,0.1758,0.1807,0.1868,0.1883,0.1691,0.169,0.1689,0.1689,0,0,0.1467,0.1521,0.1527,0.1558,0.1602,0.1625,0.1665,0.171,0.175,0.1765,0.1817,0.1827,0.1834,0.1841,0.1832,0.1862,0.195,0.1848,0.1849,0.1914,0.2072,0.1972,0.1979,0.1939,0.1941,0.1943,0.2099,0,0.1481,0.1527,0.1553,0.1611,0.1642,0.1678,0.1721,0.1765,0.1799,0.1849,0.1861,0.1902,0.1869,0.1892,0.1919,0.1937,0.1989,0.1912,0.2011,0.2015,0.1923,0.1991,0.1819,0.1933,0.2113,0.2116,0.2118,0,0.1493,0.1526,0.158,0.1656,0.1673,0.1713,0.1796,0.1836,0.1905,0.1933,0.1978,0.1991,0.2045,0.2002,0.2088,0.2044,0.2072,0.2083,0.2088,0.1985,0.1941,0.1909,0.1954,0.2142,0.214,0.2139,0.2137,0,0.1485,0.155,0.1597,0.1622,0.1702,0.1743,0.1791,0.1867,0.1913,0.1996,0.204,0.2097,0.2141,0.2176,0.2207,0.2161,0.2303,0.2241,0.2188,0.2183,0.2049,0.2026,0.232,0.232,0.232,0.2319,0.2319,0,0.1493,0.1534,0.1601,0.163,0.17,0.1756,0.184,0.1894,0.1976,0.2039,0.2087,0.2145,0.2186,0.226,0.2267,0.2287,0.2366,0.2218,0.2217,0.2062,0.204,0.2216,0.2202,0.2325,0.2324,0.2323,0.2322,0,0.1482,0.1525,0.1585,0.1668,0.1701,0.1754,0.1862,0.1912,0.2,0.2085,0.2117,0.2215,0.2308,0.2357,0.2437,0.2365,0.2393,0.2387,0.2211,0.2182,0.2232,0.2219,0.233,0.2327,0.2325,0.2324,0.2322,0,0.148,0.1507,0.16,0.1633,0.1675,0.1759,0.1811,0.1913,0.1961,0.2118,0.2146,0.2282,0.2324,0.2413,0.2366,0.2382,0.2434,0.2197,0.2045,0.2246,0.2234,0.2223,0.2213,0.1918,0.1914,0.191,0.1907,0,0.1462,0.1497,0.1537,0.1608,0.1667,0.1735,0.1815,0.1855,0.1973,0.2048,0.2149,0.2202,0.2284,0.2198,0.2209,0.2182,0.2164,0.2115,0.2414,0.1911,0.1861,0.1848,0.1851,0.1874,0.1877,0.188,0.1882,0.1883,0.1436,0.1455,0.1502,0.1569,0.163,0.1681,0.1715,0.1783,0.1855,0.1891,0.1999,0.1988,0.202,0.1908,0.1891,0.1876,0.1987,0.1862,0.1873,0.1889,0.1781,0.1726,0.1698,0.17,0.1702,0.1704,0.1705,0,0.1385,0.1412,0.1458,0.1522,0.1555,0.1625,0.1688,0.1683,0.1723,0.1725,0.173,0.1553,0.1509,0.16,0.1511,0.148,0.1467,0.1433,0.1406,0.144,0.147,0.134,0.1141,0.1139,0.1138,0.1136,0,0,0.1353,0.1364,0.1391,0.1423,0.1477,0.1504,0.1528,0.1518,0.151,0.1385,0.1323,0.1314,0.1477,0.1243,0.1244,0.1191,0.1301,0.1147,0.1599,0.1599,0.1626,0.1719,0.1556,0,0,0,0,0]},{"header":{"parameterUnit":"m.s-1","parameterCategory":2,"la1":30.2991,"la2":30.254,"lo1":-89.0895,"lo2":-89.0444,"dy":0.0017,"dx":0.0017,"nx":28,"ny":28,"refTime":"2024-02-25T03:00:00:Z","depth":"2","parameterNumber":3,"parameterNumberName":"V-component_of_CURRENTS"},"data":[0,0,0,0,0,0,0,0,0,0,0,0,0,0,0,0,0,0,0,0,0,0,0,0,0,0,0,0,0,0,0,0,0,0,0,0,0,0,0,0,0,0,0,0,0,0,0,0,0,0,0,0,0,0,0,0,0,0,-0.0403,-0.0404,0,-0.0478,-0.048,-0.0481,-0.0535,-0.0535,-0.0536,-0.0536,-0.0625,-0.0627,-0.0629,0,0,0,0,0,0,0,0,0,0,0,0,0,-0.0404,-0.0403,-0.0403,-0.0404,-0.0404,-0.0478,-0.048,-0.0481,-0.0535,-0.0535,-0.0536,-0.0536,-0.0624,-0.0626,-0.0629,0,0,0,0,0,0,0,0,0,0,0,0,0,-0.0437,-0.0403,-0.0403,-0.0438,-0.0441,-0.0478,-0.048,-0.0481,-0.0535,-0.0535,-0.0536,-0.0536,-0.0623,-0.0626,-0.063,-0.0646,0,0,-0.064,-0.0641,0,0,0,0,0,0,0,0,-0.0435,-0.0437,-0.0432,-0.0435,-0.0439,-0.0495,-0.0512,-0.0536,-0.0535,-0.0503,-0.0536,-0.0536,-0.058,-0.0587,-0.0605,-0.065,-0.0654,-0.064,-0.0642,-0.0644,-0.0644,0,0,0,0,0,0,0,-0.0432,-0.0435,-0.0436,-0.0433,-0.0437,-0.0483,-0.0487,-0.0518,-0.0542,-0.0506,-0.0509,-0.0512,-0.0583,-0.0602,-0.0608,-0.0655,-0.064,-0.0643,-0.0645,-0.0646,-0.0717,-0.0717,0,0,0,0,0,0,-0.041,-0.0432,-0.0434,-0.0438,-0.0434,-0.0482,-0.0487,-0.048,-0.0542,-0.0551,-0.0512,-0.0514,-0.0596,-0.0604,-0.0611,-0.061,-0.0644,-0.0647,-0.0649,-0.0717,-0.0717,-0.0717,0,0,0,0,0,0,-0.041,-0.0409,-0.0431,-0.0435,-0.044,-0.048,-0.0472,-0.0481,-0.0499,-0.0546,-0.0555,-0.052,-0.0597,-0.0606,-0.0633,-0.0615,-0.0648,-0.0651,-0.0718,-0.0717,-0.0717,-0.0624,0,0,0,0,0,0,-0.0409,-0.0408,-0.0406,-0.0433,-0.0439,-0.044,-0.0472,-0.0482,-0.0499,-0.0503,-0.0556,-0.0565,-0.0598,-0.0628,-0.0637,-0.062,-0.0654,-0.0718,-0.0718,-0.0717,-0.0627,-0.062,-0.0615,0,0,0,0,0,-0.0409,-0.0393,-0.0405,-0.0406,-0.043,-0.0438,-0.0446,-0.0479,-0.0499,-0.0499,-0.0538,-0.0563,-0.0633,-0.0631,-0.0641,-0.0625,-0.0718,-0.0718,-0.0717,-0.063,-0.0622,-0.0615,0,0,0,0,0,0,-0.0396,-0.0398,-0.0412,-0.0399,-0.0413,-0.0446,-0.0451,-0.0474,-0.0508,-0.0512,-0.0562,-0.0573,-0.0591,-0.0625,-0.0621,-0.0647,-0.0679,-0.0681,-0.0609,-0.0602,-0.0596,-0.057,-0.0657,0,0,0,0,0,-0.0389,-0.0377,-0.0391,-0.0384,-0.0385,-0.042,-0.0431,-0.0447,-0.0475,-0.0491,-0.0527,-0.0567,-0.0598,-0.0613,-0.0647,-0.066,-0.0687,-0.0658,-0.0651,-0.0646,-0.0634,-0.0671,-0.0667,-0.0716,-0.0716,-0.0716,0,0,-0.0384,-0.0383,-0.0379,-0.0381,-0.0397,-0.0383,-0.0427,-0.043,-0.0423,-0.0494,-0.0502,-0.0547,-0.0599,-0.0612,-0.0623,-0.0636,-0.0644,-0.0646,-0.064,-0.0631,-0.067,-0.0666,-0.0661,-0.0716,-0.0716,-0.0716,0,0,-0.0353,-0.0362,-0.0338,-0.0341,-0.0347,-0.0361,-0.0356,-0.038,-0.0395,-0.0408,-0.0457,-0.0488,-0.0537,-0.0565,-0.0588,-0.057,-0.0612,-0.0586,-0.0529,-0.0566,-0.0561,-0.0558,-0.0569,-0.0568,-0.058,-0.058,-0.058,0,-0.0348,-0.0317,-0.0335,-0.031,-0.0305,-0.0341,-0.0313,-0.033,-0.0362,-0.0373,-0.0395,-0.047,-0.051,-0.0529,-0.0522,-0.0552,-0.0577,-0.0548,-0.0555,-0.0553,-0.0551,-0.0563,-0.0563,-0.0575,-0.0576,-0.0576,-0.0577,0,-0.0297,-0.0275,-0.026,-0.0235,-0.0233,-0.0215,-0.0227,-0.0235,-0.0259,-0.0284,-0.0312,-0.0373,-0.0418,-0.0435,-0.0471,-0.0479,-0.0501,-0.0543,-0.0567,-0.054,-0.0555,-0.0556,-0.0569,-0.057,-0.0572,-0.0573,0,0,-0.0269,-0.023,-0.0224,-0.0202,-0.019,-0.018,-0.0162,-0.0163,-0.016,-0.0199,-0.0202,-0.0257,-0.0302,-0.0331,-0.0385,-0.0412,-0.0415,-0.0464,-0.0468,-0.046,-0.0479,-0.046,-0.0459,-0.0463,-0.0463,-0.0463,-0.0487,0,-0.0223,-0.0159,-0.0152,-0.0097,-0.0065,-0.0085,-0.0066,-0.0075,-0.0099,-0.0114,-0.0175,-0.0202,-0.0259,-0.0282,-0.0316,-0.0399,-0.0417,-0.0403,-0.0518,-0.0521,-0.0496,-0.046,-0.0442,-0.0459,-0.0488,-0.0489,-0.0489,0,-0.0168,-0.0133,-0.0067,-0.0026,-0.0015,0.0009,0.0023,0.0035,0.0006,-0.0019,-0.0058,-0.0112,-0.0154,-0.0212,-0.0311,-0.0303,-0.0374,-0.0434,-0.0438,-0.0453,-0.0504,-0.0497,-0.0461,-0.0491,-0.0491,-0.0491,-0.0491,0,-0.0134,-0.0072,-0.0018,-0.0004,0.0035,0.0053,0.0069,0.006,0.0071,0.004,0.0035,-0.0034,-0.0063,-0.0164,-0.0273,-0.0301,-0.0378,-0.0439,-0.0482,-0.0482,-0.0504,-0.0504,-0.05,-0.05,-0.05,-0.05,-0.05,0,-0.0083,-0.0041,-0.0001,0.0026,0.0083,0.0094,0.0139,0.0133,0.0134,0.0158,0.0086,0.0088,-0.0055,-0.0118,-0.0236,-0.0341,-0.035,-0.0453,-0.0484,-0.0469,-0.0466,-0.0534,-0.0537,-0.0501,-0.0501,-0.05,-0.05,0,-0.0049,-0.0022,0.0039,0.0085,0.0103,0.0141,0.0191,0.0216,0.021,0.0239,0.0236,0.0181,0.0113,-0.0016,-0.0164,-0.0278,-0.0394,-0.043,-0.0382,-0.0406,-0.0485,-0.0483,-0.049,-0.049,-0.0489,-0.0489,-0.0488,0,-0.0023,0.0013,0.0076,0.0113,0.0136,0.0192,0.023,0.0247,0.0278,0.0303,0.0321,0.0281,0.0271,0.0083,-0.0114,-0.0287,-0.0337,-0.0401,-0.0453,-0.0453,-0.0483,-0.0482,-0.0481,-0.0445,-0.0444,-0.0443,-0.0443,0,0.0023,0.0041,0.0086,0.0155,0.0205,0.0267,0.0323,0.0362,0.0394,0.0441,0.0493,0.0499,0.0337,0.0176,-0.0057,-0.0189,-0.0374,-0.0395,-0.0413,-0.0443,-0.041,-0.0439,-0.044,-0.0438,-0.0439,-0.0439,-0.0439,-0.044,0.005,0.0087,0.0141,0.0208,0.0265,0.0338,0.0401,0.0474,0.0562,0.064,0.0615,0.0628,0.042,0.0141,-0.0061,-0.0291,-0.0313,-0.0425,-0.0427,-0.043,-0.0413,-0.0381,-0.0399,-0.0399,-0.0399,-0.04,-0.04,0,0.0093,0.0132,0.0192,0.0273,0.034,0.0361,0.0462,0.0549,0.0684,0.0732,0.0785,0.0606,0.0426,0.0204,-0.0131,-0.0338,-0.0367,-0.0397,-0.0405,-0.0409,-0.0412,-0.0395,-0.0376,-0.0377,-0.0377,-0.0377,0,0,0.012,0.0182,0.0211,0.0325,0.038,0.0485,0.0551,0.0698,0.0772,0.0852,0.0842,0.0773,0.0495,0.0255,-0.0016,-0.0192,-0.025,-0.0222,-0.0225,-0.0206,-0.0206,-0.0416,-0.0392,0,0,0,0,0]}],[{"header":{"parameterUnit":"m.s-1","parameterCategory":2,"la1":30.2991,"la2":30.254,"lo1":-89.0895,"lo2":-89.0444,"dy":0.0017,"dx":0.0017,"nx":28,"ny":28,"refTime":"2024-02-25T03:00:00:Z","depth":"4","parameterNumber":2,"parameterNumberName":"U-component_of_CURRENTS"},"data":[0,0,0,0,0,0,0,0,0,0,0,0,0,0,0,0,0,0,0,0,0,0,0,0,0,0,0,0,0,0,0,0,0,0,0,0,0,0,0,0,0,0,0,0,0,0,0,0,0,0,0,0,0,0,0,0,0,0,0.0565,0.0567,0,0.0622,0.0622,0.0621,0.0683,0.0685,0.0687,0.0689,0.0749,0.0749,0.0748,0,0,0,0,0,0,0,0,0,0,0,0,0,0.0466,0.0467,0.0565,0.0567,0.0569,0.0622,0.0622,0.0621,0.0683,0.0685,0.0687,0.069,0.0749,0.0749,0.0748,0,0,0,0,0,0,0,0,0,0,0,0,0,0.0504,0.0467,0.0565,0.0614,0.062,0.0622,0.0622,0.0621,0.0682,0.0685,0.0688,0.0691,0.0749,0.0749,0.0748,0.0689,0,0,0.0748,0.0747,0,0,0,0,0,0,0,0,0.0502,0.0506,0.0605,0.0611,0.0617,0.0658,0.061,0.0648,0.0682,0.0647,0.0689,0.0692,0.0724,0.0726,0.0714,0.0692,0.0695,0.0747,0.0747,0.0747,0.0747,0,0,0,0,0,0,0,0.0499,0.0504,0.0576,0.0607,0.0614,0.0619,0.0627,0.0616,0.066,0.065,0.0657,0.0681,0.0726,0.0714,0.0716,0.0695,0.0747,0.0747,0.0747,0.0747,0.0823,0.0825,0,0,0,0,0,0,0.0514,0.0502,0.0575,0.0579,0.0578,0.062,0.0628,0.0633,0.066,0.067,0.0678,0.0683,0.0713,0.0717,0.0719,0.0792,0.0747,0.0747,0.0747,0.0821,0.0823,0.0825,0,0,0,0,0,0,0.0511,0.0519,0.0573,0.0552,0.0561,0.062,0.0624,0.0633,0.0669,0.0684,0.0692,0.0713,0.0716,0.0719,0.0765,0.079,0.0747,0.0747,0.0818,0.0821,0.0824,0.0849,0,0,0,0,0,0,0.0507,0.0517,0.0514,0.0552,0.0563,0.0607,0.0623,0.0632,0.0681,0.0689,0.0715,0.0721,0.0718,0.0766,0.0765,0.0789,0.0746,0.0815,0.0819,0.0823,0.0845,0.0852,0.0859,0,0,0,0,0,0.0503,0.0525,0.0513,0.0523,0.056,0.0609,0.0613,0.0657,0.0681,0.0697,0.0731,0.0722,0.0792,0.0766,0.0765,0.079,0.0813,0.0818,0.0823,0.0842,0.0851,0.0858,0,0,0,0,0,0,0.0501,0.0535,0.0523,0.0555,0.0584,0.0625,0.0657,0.0674,0.0706,0.0724,0.0735,0.0743,0.0794,0.0793,0.0765,0.083,0.0806,0.0811,0.0821,0.0829,0.0836,0.0821,0.0746,0,0,0,0,0,0.0488,0.0495,0.0535,0.0553,0.0583,0.0613,0.0637,0.0662,0.0703,0.0722,0.0742,0.0773,0.08,0.082,0.0835,0.0856,0.0846,0.088,0.0887,0.0892,0.0883,0.0896,0.0902,0.0842,0.0842,0.0841,0,0,0.0487,0.0509,0.051,0.0549,0.0579,0.0612,0.0635,0.069,0.071,0.072,0.0765,0.0791,0.0813,0.0849,0.0873,0.0859,0.0908,0.0899,0.0903,0.089,0.0901,0.0907,0.0912,0.0845,0.0844,0.0844,0,0,0.0506,0.0519,0.0535,0.0563,0.0615,0.0633,0.066,0.0711,0.0737,0.0769,0.0796,0.084,0.0872,0.0893,0.0908,0.0959,0.0942,0.0982,0.0998,0.1011,0.1015,0.1018,0.1018,0.1021,0.0986,0.0986,0.0986,0,0.0496,0.0523,0.055,0.0585,0.0614,0.0651,0.0685,0.0707,0.0758,0.078,0.0798,0.0866,0.0886,0.0931,0.0962,0.0969,0.0974,0.0959,0.1016,0.1019,0.1022,0.1021,0.1024,0.0988,0.0987,0.0987,0.0987,0,0.0521,0.055,0.0584,0.0614,0.0645,0.069,0.0731,0.0763,0.0797,0.0812,0.0873,0.09,0.0943,0.0966,0.0978,0.1023,0.102,0.1018,0.0984,0.1028,0.1026,0.1028,0.099,0.0989,0.0989,0.0989,0,0,0.0486,0.0572,0.0585,0.0607,0.0667,0.0698,0.0743,0.0788,0.0823,0.086,0.0906,0.0955,0.0977,0.0996,0.1023,0.1038,0.1069,0.1045,0.1045,0.1025,0.1096,0.1058,0.1057,0.1082,0.1082,0.1083,0.1087,0,0.0494,0.0554,0.0595,0.0649,0.0692,0.0736,0.0771,0.081,0.0848,0.0898,0.0934,0.099,0.0987,0.103,0.104,0.1071,0.1077,0.1067,0.1073,0.1073,0.1017,0.1059,0.1085,0.1089,0.1089,0.109,0.109,0,0.0506,0.0545,0.06,0.0674,0.0699,0.0728,0.0793,0.0831,0.0898,0.0934,0.0981,0.1018,0.1067,0.1061,0.1089,0.1089,0.1093,0.1099,0.11,0.1052,0.1039,0.1037,0.1094,0.1094,0.1094,0.1093,0.1093,0,0.0472,0.0555,0.0594,0.0617,0.0699,0.0734,0.078,0.0844,0.0884,0.0971,0.1014,0.1057,0.1106,0.1109,0.113,0.1121,0.1152,0.1136,0.1093,0.109,0.1108,0.1104,0.1141,0.1141,0.1141,0.1141,0.1141,0,0.047,0.051,0.0585,0.061,0.0659,0.0724,0.0787,0.0839,0.0915,0.0963,0.1037,0.1075,0.1125,0.1153,0.1144,0.1129,0.116,0.1095,0.1091,0.1122,0.112,0.111,0.1106,0.1142,0.1141,0.1141,0.1141,0,0.0441,0.0493,0.0542,0.0622,0.0653,0.0689,0.0794,0.0828,0.0918,0.0986,0.1025,0.1106,0.1148,0.1175,0.1196,0.1153,0.1143,0.1128,0.1163,0.1162,0.1062,0.106,0.1065,0.1063,0.1062,0.1062,0.1061,0,0.0431,0.0456,0.0534,0.0563,0.0607,0.0679,0.0723,0.0821,0.0859,0.0985,0.1004,0.1095,0.114,0.1128,0.116,0.1147,0.1133,0.1115,0.1076,0.1059,0.1055,0.1055,0.1055,0.1059,0.1059,0.1058,0.1058,0,0.0406,0.0435,0.0468,0.052,0.0569,0.0626,0.0702,0.0728,0.0838,0.0923,0.0977,0.1019,0.1069,0.1089,0.1109,0.1089,0.112,0.1103,0.1104,0.1068,0.1053,0.105,0.105,0.1054,0.1055,0.1055,0.1056,0,0.0377,0.0385,0.0426,0.047,0.0523,0.0559,0.0613,0.0673,0.073,0.0869,0.0878,0.0974,0.1052,0.1059,0.1063,0.1065,0.1036,0.0987,0.0994,0.0998,0.0978,0.0949,0.0916,0,0,0,0,0,0.0345,0.0353,0.0379,0.0423,0.0467,0.0504,0.0587,0.064,0.0748,0.0761,0.0824,0.0871,0.0918,0.096,0.0946,0.102,0.1029,0.0998,0.0973,0.1034,0.1038,0.1022,0,0,0,0,0,0,0.0325,0.0343,0.0354,0.0367,0.0392,0.0438,0.0488,0.0559,0.0584,0.0696,0.0725,0.0813,0.0865,0.0914,0.0926,0.0939,0.0904,0.1057,0.1055,0.1031,0.1035,0.1039,0.1024,0,0,0,0,0]},{"header":{"parameterUnit":"m.s-1","parameterCategory":2,"la1":30.2991,"la2":30.254,"lo1":-89.0895,"lo2":-89.0444,"dy":0.0017,"dx":0.0017,"nx":28,"ny":28,"refTime":"2024-02-25T03:00:00:Z","depth":"4","parameterNumber":3,"parameterNumberName":"V-component_of_CURRENTS"},"data":[0,0,0,0,0,0,0,0,0,0,0,0,0,0,0,0,0,0,0,0,0,0,0,0,0,0,0,0,0,0,0,0,0,0,0,0,0,0,0,0,0,0,0,0,0,0,0,0,0,0,0,0,0,0,0,0,0,0,0.0156,0.0155,0,0.012,0.012,0.012,0.0107,0.0107,0.0106,0.0106,0.0074,0.0074,0.0073,0,0,0,0,0,0,0,0,0,0,0,0,0,0.0182,0.0182,0.0156,0.0155,0.0154,0.012,0.012,0.012,0.0107,0.0106,0.0106,0.0106,0.0074,0.0074,0.0073,0,0,0,0,0,0,0,0,0,0,0,0,0,0.0166,0.0182,0.0156,0.014,0.0138,0.012,0.012,0.012,0.0107,0.0106,0.0106,0.0105,0.0075,0.0074,0.0073,0.0079,0,0,0.0071,0.007,0,0,0,0,0,0,0,0,0.0167,0.0165,0.0143,0.0141,0.0138,0.0113,0.0117,0.0105,0.0107,0.0124,0.0106,0.0105,0.0085,0.0083,0.0085,0.0077,0.0076,0.0071,0.007,0.007,0.007,0,0,0,0,0,0,0,0.0168,0.0166,0.0147,0.0142,0.0139,0.0123,0.0121,0.0115,0.0112,0.0122,0.012,0.0108,0.0084,0.0085,0.0084,0.0075,0.0071,0.007,0.007,0.0069,0.0018,0.0017,0,0,0,0,0,0,0.0164,0.0168,0.0148,0.0145,0.0146,0.0123,0.0121,0.0126,0.0112,0.0107,0.0109,0.0108,0.0087,0.0085,0.0082,0.0052,0.007,0.0069,0.0069,0.0019,0.0018,0.0017,0,0,0,0,0,0,0.0166,0.0164,0.0149,0.0151,0.0147,0.0123,0.0129,0.0125,0.0116,0.01,0.0097,0.0101,0.0087,0.0084,0.0061,0.0052,0.0069,0.0068,0.002,0.0019,0.0018,0.0015,0,0,0,0,0,0,0.0167,0.0165,0.0174,0.0151,0.0147,0.0132,0.0128,0.0125,0.0108,0.0106,0.0093,0.009,0.0086,0.0062,0.0061,0.0052,0.0068,0.0021,0.002,0.0018,0.0016,0.0014,0.0012,0,0,0,0,0,0.0168,0.0176,0.0176,0.0173,0.0159,0.0131,0.0128,0.0112,0.0108,0.0103,0.0088,0.009,0.005,0.0061,0.0059,0.005,0.0022,0.002,0.0018,0.0017,0.0014,0.0012,0,0,0,0,0,0,0.0193,0.0175,0.0173,0.0177,0.0153,0.0127,0.0121,0.0108,0.0095,0.0093,0.0082,0.0078,0.0054,0.005,0.0062,0.0028,0.0035,0.0033,0.0035,0.0033,0.003,0.0048,0.0067,0,0,0,0,0,0.0203,0.0208,0.0179,0.0184,0.017,0.0147,0.0135,0.0121,0.01,0.0094,0.0082,0.0066,0.0047,0.0037,0.0025,0.0009,0.0005,-0.0001,-0.0003,-0.0005,0.0006,-0.0016,-0.0019,0.001,0.001,0.0011,0,0,0.0217,0.0205,0.021,0.0189,0.0173,0.0155,0.014,0.0118,0.0108,0.0092,0.0081,0.0059,0.004,0.002,0.0009,0.0014,-0.0018,-0.0007,-0.0008,0.0004,-0.0019,-0.0021,-0.0024,0.0009,0.0009,0.001,0,0,0.0226,0.0231,0.0228,0.0208,0.0174,0.0161,0.0151,0.012,0.0112,0.0093,0.0074,0.0045,0.0027,0.0006,-0.0005,-0.0028,-0.0029,-0.0037,-0.0032,-0.0055,-0.0057,-0.0059,-0.0074,-0.0077,-0.0038,-0.0038,-0.0038,0,0.0242,0.0235,0.0221,0.0201,0.0189,0.0162,0.0148,0.0136,0.0103,0.0096,0.0089,0.0045,0.0023,-0.0006,-0.002,-0.0032,-0.0041,-0.0018,-0.0056,-0.0058,-0.006,-0.0075,-0.0078,-0.0038,-0.0038,-0.0038,-0.0038,0,0.0235,0.0231,0.0223,0.0202,0.0188,0.0171,0.0146,0.0134,0.0122,0.0108,0.0079,0.0046,0.0021,-0.0,-0.0017,-0.0047,-0.0049,-0.0056,-0.0045,-0.0063,-0.0078,-0.0081,-0.0039,-0.0039,-0.0039,-0.0039,0,0,0.0261,0.0229,0.0225,0.0219,0.0188,0.0176,0.0163,0.0143,0.014,0.0109,0.0098,0.0051,0.0033,0.0017,-0.0014,-0.004,-0.0074,-0.0054,-0.0055,-0.0059,-0.0119,-0.0129,-0.0134,-0.0088,-0.0089,-0.0089,-0.0126,0,0.0257,0.0235,0.022,0.0208,0.0194,0.0177,0.0175,0.0157,0.0142,0.0127,0.0088,0.0067,0.004,0.0022,-0.0009,-0.0058,-0.0083,-0.0063,-0.0108,-0.0109,-0.0108,-0.0138,-0.0091,-0.0128,-0.0129,-0.013,-0.013,0,0.0238,0.0232,0.0221,0.0215,0.0209,0.0205,0.0201,0.0195,0.017,0.0156,0.0127,0.01,0.0051,0.0032,-0.0042,-0.0028,-0.007,-0.0105,-0.0108,-0.0114,-0.0125,-0.0106,-0.0136,-0.0136,-0.0135,-0.0135,-0.0134,0,0.0244,0.0228,0.0228,0.0222,0.0213,0.0215,0.0218,0.0203,0.021,0.0176,0.0171,0.0116,0.009,0.003,-0.0046,-0.0045,-0.0124,-0.013,-0.0175,-0.0176,-0.0152,-0.015,-0.0176,-0.0176,-0.0176,-0.0176,-0.0176,0,0.0231,0.0228,0.0235,0.0231,0.0248,0.0236,0.0252,0.0242,0.0238,0.0248,0.0193,0.018,0.0089,0.0032,-0.0038,-0.0118,-0.0117,-0.0174,-0.0189,-0.0154,-0.0152,-0.0155,-0.0152,-0.0177,-0.0177,-0.0177,-0.0177,0,0.022,0.0219,0.0224,0.0235,0.0245,0.0259,0.0286,0.0299,0.0289,0.0297,0.0288,0.0228,0.0147,0.0054,-0.0051,-0.0101,-0.0182,-0.021,-0.0164,-0.0175,-0.0218,-0.0215,-0.0257,-0.0258,-0.0258,-0.0259,-0.0259,0,0.0211,0.0211,0.0239,0.0256,0.0262,0.0289,0.0312,0.0321,0.0338,0.0328,0.0332,0.0259,0.0204,0.0057,-0.005,-0.0184,-0.0203,-0.0236,-0.0231,-0.0218,-0.0227,-0.0223,-0.0219,-0.026,-0.026,-0.026,-0.0261,0,0.0206,0.0218,0.0232,0.0273,0.0301,0.0335,0.0368,0.0387,0.04,0.0392,0.0368,0.0285,0.019,0.0063,-0.005,-0.0144,-0.0212,-0.0243,-0.0242,-0.0237,-0.0222,-0.023,-0.0226,-0.0263,-0.0262,-0.0262,-0.0262,0,0.0216,0.023,0.0259,0.0292,0.0332,0.037,0.0385,0.0408,0.0427,0.0419,0.0409,0.0302,0.0239,0.0083,-0.0018,-0.012,-0.014,-0.0158,-0.0162,-0.0161,-0.013,-0.0097,-0.0111,0,0,0,0,0,0.0229,0.0247,0.0279,0.0317,0.0356,0.0379,0.0421,0.0434,0.045,0.0442,0.043,0.034,0.0184,0.0111,0.0009,-0.0037,-0.0165,-0.0161,-0.019,-0.0274,-0.0272,-0.0253,0,0,0,0,0,0,0.0237,0.0267,0.028,0.0334,0.0362,0.0409,0.0435,0.0445,0.0441,0.0438,0.0353,0.0319,0.016,0.024,0.0006,-0.0026,-0.0055,-0.0236,-0.0238,-0.0276,-0.0273,-0.0271,-0.0252,0,0,0,0,0]}]]